星链-32834 (STARLINK-32834)

导读

STARLINK-32834是美国SpaceX星链星座的卫星,于2025年2月1日发射升空,属于星链低轨互联网星座的扩容组网卫星。星链系统旨在为全球提供高速宽带互联网服务,该卫星入轨后参与星座组网,进一步完善全球覆盖,提升服务性能,同时也引发了天文观测、空间碎片等方面的讨论。

Basic Information
目录编号:
62875
目录名称:
STARLINK-32834
国际标识:
2025-022X
轨道中心:
EARTH
卫星名称:
星链-32834
卫星全名:
星链-32834 (STARLINK-32834)
卫星状态:
在轨 (已飞行580 天)
发射日期:
2025-02-01 UTC
国别 :
美国 (US)
星等 :
--
Orbit Information
数据来源 国际轨道数据
星历时间: 2026-09-04T02:18:08+0800
17小时前
查看轨道信息
半长轴: 6840.854km
偏心率: 0.0001063
轨道倾角: 53.161°
近地点辐角 62.816°
升交点赤经 19.667°
平近点角 297.295°
近地点: 461.989km
远地点: 463.445km
周期: 93.848分钟
每日圈数: 15.343954
Detailed Information
固有亮度:
5
最大亮度:
2.5
卫星平台:
Starlink V1.0
覆盖范围:
全球
运营商:
太空探索技术公司
运营商所在国:
美国
制造商(研发单位):
太空探索技术公司
制造商所在国:
美国
使用方式:
暂无
Satellite Introduction
Starlink 计划是 SpaceX 推出的全球卫星互联网项目,通过发射低轨道卫星,为全球尤其是偏远地区提供高速、低延迟的互联网服务。自 2019 年起,Starlink 已部署数千颗卫星,旨在缩小全球数字鸿沟,推动互联网普及。该项目还为军事、航空等行业提供通信支持,带来广泛经济效益。
2D Orbit Map
3D Orbit Map
Orbit Altitude Analysis Chart
Orbit Inclination Analysis Chart
Orbit Comprehensive Analysis Chart
View Comprehensive Chart
Conjunction Data List
Event ID Objects TCA Miss Dist (km) Collision Risk Probability Collision Risk Index (CRI) Action
CDM_260906-152105-469506-287521
OBJECT P (54695)
2026-09-06T
15:21:11+0000
1.410 km
极远距离
5.709726E-6 低风险 0.5
CDM_260906-104904-004206-287521
2026-09-06T
10:49:44+0000
1.700 km
极远距离
3.660056E-6 低风险 0.46
CDM_260905-065405-373306-287522
2026-09-05T
06:54:30+0000
2.387 km
极远距离
1.653149E-6 低风险 0.39